GFSNGP_con_3kmhel_114.txt.gz
Helicity
-45 22 91 212 66 113 188 131 130 30 27 23 11 19 37 46 76 132 185 174 174 200 218 245 253 258 290 295 276 203 143 258 252 277 315 294 164 212 292 274 240 251 211 172
214 162 154 212 349 415 209 50 -28 -20 -36 -47 -38 -12 53 83 101 115 100 112 87 91 132 159 189 196 173 270 206 197 157 269 248 247 290 367 442 360 267 313 286 264 188 174
73 156 222 442 78 153 174 140 22 7 -53 -46 11 34 44 52 70 59 45 44 28 43 61 93 132 135 131 179 188 211 206 257 373 306 301 333 362 632 579 549 447 435 369 311
35 192 210 21 22 33 120 136 81 3 -12 -13 -27 -3 40 38 16 18 4 -1 -4 -4 -7 7 17 31 51 94 100 152 237 230 298 322 262 266 420 618 778 705 638 556 485 399
58 124 -4 51 68 47 22 83 66 34 -8 7 -6 5 61 55 54 32 18 -9 -9 -2 -1 11 28 36 20 21 55 98 162 195 241 225 248 280 328 339 368 468 641 697 532 537
131 118 66 60 111 -18 -83 51 55 43 57 38 -32 27 61 35 54 78 10 -13 -28 -3 26 50 55 36 21 17 26 40 62 84 125 123 87 190 178 163 91 302 264 447 481 578
121 105 52 95 121 8 14 15 10 10 21 28 -12 -28 -43 -4 9 34 24 24 8 -3 14 48 65 51 59 51 8 20 19 23 28 63 91 75 70 146 192 183 172 192 295 423
29 55 90 135 24 30 17 30 25 14 -1 -4 -18 -12 29 28 25 40 47 34 18 7 24 47 65 65 61 72 34 -6 16 24 42 57 41 40 57 88 125 114 146 146 190 232
39 7 8 25 49 41 23 13 22 30 6 0 28 38 38 29 27 19 26 29 17 20 32 50 68 78 83 81 56 31 7 19 36 48 63 80 105 95 87 84 100 105 103 93
3 7 16 12 21 43 33 23 42 66 94 87 72 55 44 30 20 10 2 1 8 18 40 57 69 73 79 96 64 47 41 9 22 41 61 83 77 100 116 124 122 111 98 91
22 17 26 24 29 32 66 83 82 94 95 75 83 66 56 51 38 26 17 14 21 28 42 64 80 95 99 108 82 56 49 47 18 11 24 38 68 105 111 136 117 106 120 127
26 20 25 20 21 35 61 86 85 80 92 76 60 52 54 44 41 39 37 36 37 47 50 59 73 91 109 113 95 59 62 56 55 23 21 21 32 66 152 151 206 211 173 130
8 23 39 25 18 21 59 63 73 91 76 79 63 59 62 47 39 56 46 51 56 59 56 55 67 89 122 107 96 74 55 63 57 63 52 31 43 65 87 123 195 221 217 202
39 54 34 3 11 43 111 107 107 105 115 96 65 59 52 51 46 51 57 51 46 47 64 68 80 100 114 102 81 86 78 83 61 58 60 67 75 83 90 110 132 164 203 202
38 33 74 117 131 177 158 134 117 87 84 97 92 56 50 53 52 48 46 56 58 66 78 90 99 125 123 115 97 84 77 81 83 82 76 70 72 94 114 127 133 134 137 162
32 56 115 143 137 145 145 112 103 79 75 74 85 71 61 57 56 57 56 67 72 80 86 92 110 121 129 130 118 96 68 75 81 94 103 96 79 74 86 120 155 161 156 147
42 63 80 93 117 124 129 110 96 84 77 75 68 59 65 68 73 76 71 55 71 73 94 115 108 110 124 146 134 101 74 73 60 63 90 105 89 71 56 82 112 135 142 130
61 73 95 121 124 114 97 87 85 84 79 74 78 83 91 90 70 68 79 74 83 90 99 101 91 94 116 142 131 107 96 82 76 66 66 83 93 75 62 75 84 85 88 104
161 192 165 127 97 99 93 95 95 93 85 78 90 97 83 71 64 61 67 127 120 86 79 115 118 112 138 147 120 91 93 98 92 80 50 54 86 89 90 80 71 67 61 68
159 158 140 109 78 90 111 106 106 97 74 93 95 83 78 80 99 107 116 146 83 58 48 77 90 113 124 125 112 79 73 78 92 90 85 73 61 65 64 65 60 56 49 49
92 78 79 84 90 95 110 105 106 88 66 80 97 88 97 109 114 130 148 165 96 74 83 90 95 110 106 100 91 79 78 80 83 91 101 99 90 80 77 73 71 67 61 60
42 64 76 80 87 86 74 84 91 81 74 77 92 103 111 125 141 140 112 135 87 55 81 91 81 97 90 88 74 74 72 72 80 81 93 95 89 84 84 75 80 81 75 70
55 70 71 68 66 59 69 83 74 85 84 72 84 89 89 99 108 158 147 86 88 81 77 80 72 76 76 81 68 57 76 76 71 84 81 79 73 68 64 68 60 57 59 63
78 70 54 53 72 84 77 56 60 65 78 82 74 84 99 117 100 85 86 80 69 76 69 57 66 68 59 72 69 69 61 65 60 57 63 72 68 60 58 55 61 54 60 60
85 74 80 86 73 47 57 75 87 66 72 86 106 109 109 125 134 94 75 66 68 81 77 60 53 51 66 66 69 61 68 62 62 66 64 53 54 61 53 58 57 52 55 66
98 84 78 70 60 64 53 91 104 89 126 126 126 174 178 157 134 120 85 70 80 75 74 66 63 50 56 62 63 52 56 63 61 61 62 58 55 65 50 48 55 53 41 41
92 104 94 66 39 53 87 135 168 144 166 188 183 172 178 164 139 122 103 90 82 78 74 65 72 62 64 62 60 59 61 63 57 63 62 59 60 62 60 59 64 61 60 54

GFSNGP_con_3kmhel_117.txt.gz
Helicity
133 206 187 156 29 167 180 92 171 16 45 37 43 42 58 67 87 90 127 168 200 207 241 282 318 298 270 270 295 290 290 283 217 246 216 202 200 227 185 135 174 220 249 204
2 169 388 613 696 490 364 49 6 1 52 13 -4 7 45 76 88 70 94 119 106 104 140 183 194 203 196 203 213 216 209 290 268 322 280 243 193 212 290 324 266 212 231 280
25 63 295 348 156 128 153 113 -14 19 -34 -38 5 34 58 48 42 35 33 31 44 56 53 74 97 73 96 111 94 120 182 268 324 314 326 296 186 163 216 372 535 642 660 489
0 37 135 1 24 68 96 100 31 7 -29 -42 -11 13 15 29 29 14 4 5 27 30 23 29 20 16 4 21 43 79 109 144 209 284 349 333 247 271 190 210 437 745 647 606
37 96 7 2 11 32 66 80 59 21 8 8 -1 4 23 37 44 24 8 -3 -6 4 25 27 24 11 1 6 37 24 54 89 125 141 184 212 262 255 202 134 184 321 449 465
65 75 58 26 41 -16 -31 48 31 16 13 6 -7 25 25 25 36 29 -1 -16 -4 14 18 23 49 35 26 28 19 40 43 32 14 37 49 81 108 178 186 227 239 216 388 574
143 91 42 60 65 13 4 -9 -1 -6 2 19 13 -6 22 28 31 16 6 12 0 -5 9 36 47 34 40 53 52 19 9 18 43 44 37 36 27 38 81 121 200 204 131 182
86 101 98 68 14 9 4 1 6 3 3 7 28 32 29 14 0 0 -1 6 18 17 26 41 52 42 49 65 44 11 19 31 42 38 33 43 54 61 59 49 72 139 172 170
43 22 21 45 58 29 -4 -3 -9 4 28 48 32 22 20 11 6 -3 -6 -2 4 6 13 30 38 29 35 44 39 21 2 17 32 46 51 63 73 89 62 71 70 44 51 112
13 12 11 9 18 21 26 22 37 62 72 59 46 35 30 18 4 -7 -4 6 8 15 30 43 47 41 32 42 37 21 13 9 3 -1 21 48 54 70 85 91 68 59 71 75
22 17 14 13 13 29 39 41 57 56 56 45 43 35 26 22 18 15 14 15 16 21 26 36 39 48 56 62 51 35 27 20 14 0 -9 -11 25 72 61 99 85 58 83 83
3 5 18 9 7 27 53 39 26 47 53 40 29 23 26 27 29 28 32 33 33 34 35 44 50 57 70 64 45 31 25 25 24 14 -1 5 10 24 88 133 187 206 152 95
1 18 22 19 20 24 41 39 44 55 47 54 43 39 45 38 42 51 43 46 43 40 35 35 46 62 76 72 46 41 28 34 21 28 19 29 37 51 67 78 109 192 201 188
63 78 50 18 10 57 79 72 71 80 66 52 50 52 48 41 40 46 45 34 31 35 47 46 52 69 77 70 61 62 56 58 38 35 32 31 31 40 47 64 86 113 141 172
31 26 48 97 135 112 95 72 70 64 57 62 50 52 47 51 53 50 44 48 47 52 57 58 68 86 84 78 73 67 65 59 58 58 61 60 55 58 69 85 90 88 104 124
60 74 82 102 106 91 89 67 71 58 56 58 58 53 48 52 57 54 48 61 60 60 59 65 73 82 80 94 94 82 82 86 66 56 61 69 70 67 73 82 95 111 121 131
90 57 71 63 68 72 60 54 54 54 63 68 65 59 63 74 73 64 69 69 76 67 69 79 71 81 86 101 92 74 62 58 60 50 55 42 44 59 63 73 70 68 77 87
55 50 37 72 88 89 59 57 69 81 82 75 73 79 87 89 71 62 72 74 79 83 93 92 92 102 112 128 119 94 72 64 60 47 42 50 43 37 44 49 59 53 41 50
97 128 113 85 76 71 68 81 91 102 98 92 100 98 87 85 78 65 72 101 103 92 80 111 109 121 134 135 125 108 103 93 82 67 53 51 50 48 41 37 39 37 33 38
141 137 126 97 65 69 85 88 110 115 92 107 112 109 94 77 88 85 97 108 86 76 65 88 103 126 128 127 123 109 102 96 88 84 75 65 65 61 51 46 35 26 24 30
102 98 85 79 79 73 84 88 104 102 92 103 112 106 101 82 83 105 127 120 91 83 82 98 114 121 118 113 109 105 99 87 88 85 87 84 80 73 63 54 52 47 40 35
49 57 68 80 91 91 66 84 103 115 107 98 90 102 116 110 117 112 108 127 113 109 108 110 106 104 104 95 98 93 88 85 75 73 81 79 78 76 68 62 62 53 48 51
46 66 80 92 97 91 83 74 81 93 86 77 83 88 111 138 150 166 141 116 112 100 99 91 93 97 96 98 96 91 94 87 77 72 65 59 58 52 49 49 48 49 57 66
77 86 92 110 123 122 93 50 64 70 79 72 77 103 133 151 147 125 121 113 108 105 99 93 87 82 93 92 94 91 79 78 75 75 69 57 54 56 56 57 54 47 49 55
99 116 131 130 120 89 91 94 94 75 83 87 93 116 136 162 190 159 148 125 107 110 107 92 85 81 97 98 96 91 80 73 74 78 76 71 57 59 63 62 55 53 47 39
130 125 117 102 98 105 108 115 104 103 113 109 104 119 152 193 192 174 164 140 131 114 116 105 100 94 92 96 91 88 84 79 80 77 74 71 63 56 57 58 61 61 54 54
136 141 139 122 103 112 117 117 132 121 142 144 124 119 135 159 178 176 161 149 144 129 118 109 105 105 105 104 99 90 90 88 87 88 82 80 80 69 66 70 74 74 72 68

GFSNGP_con_3kmhel_123.txt.gz
Helicity
62 122 146 250 135 123 24 21 -8 -6 -3 10 40 53 62 1 41 100 123 145 177 186 205 199 232 254 243 295 272 209 195 264 318 331 291 317 253 216 232 234 283 253 259 286
0 15 95 259 272 146 104 50 27 -5 18 6 0 31 43 47 70 68 61 52 56 72 92 121 148 179 184 217 231 111 124 175 177 205 242 260 289 250 241 215 199 233 311 302
-18 -6 23 200 229 188 166 121 59 44 -7 4 -19 -7 28 29 51 67 71 43 33 31 39 50 70 68 75 80 68 90 89 85 106 114 148 237 259 226 255 249 218 132 175 190
19 12 36 21 -8 30 89 97 56 20 6 1 -6 -17 -11 8 14 25 24 28 46 56 58 55 41 62 52 88 100 87 72 65 85 82 78 85 104 159 191 205 193 199 214 280
38 53 56 68 21 2 44 55 73 45 43 56 68 44 24 27 33 30 21 17 21 22 25 14 29 34 26 44 58 81 114 80 70 52 58 63 71 78 77 77 125 149 145 217
58 65 50 68 77 33 49 42 59 42 14 -2 1 11 28 25 25 6 4 4 9 18 7 21 38 15 16 47 56 92 97 64 36 33 45 49 46 42 26 16 30 40 73 87
139 87 66 74 80 35 15 29 29 23 24 0 17 1 3 6 0 -8 -13 2 -5 -2 9 26 30 22 40 55 51 28 25 24 40 36 25 35 34 45 38 41 47 50 42 64
61 82 77 92 56 33 45 32 14 10 9 15 3 6 5 -3 -5 1 5 0 3 -2 17 21 21 5 16 29 3 -2 5 27 27 19 9 15 27 30 47 54 61 73 79 83
48 55 66 94 89 69 25 26 11 12 4 9 12 8 -1 -2 5 10 15 3 -3 11 13 24 31 29 33 28 12 11 16 13 15 9 1 -3 9 29 20 21 18 19 19 39
2 15 26 52 65 51 39 39 30 22 15 16 21 8 8 3 4 5 3 4 -1 7 20 22 17 15 7 12 4 11 17 16 4 4 1 2 -16 -22 -15 -3 -3 7 20 22
32 31 46 40 35 34 40 41 48 37 23 14 19 15 13 15 20 17 15 14 15 18 19 21 17 22 18 13 17 8 8 4 1 -12 -9 -22 -29 -21 -23 -16 -10 -26 -18 -3
10 36 36 28 23 29 40 35 21 22 31 38 33 30 28 29 24 21 23 19 25 26 22 18 13 13 12 4 2 5 1 -8 -13 -15 -13 -12 -19 -41 15 40 87 119 112 44
37 63 49 65 40 36 39 28 29 39 36 41 45 42 43 41 35 35 33 36 36 29 18 13 16 20 20 11 8 11 7 11 9 16 11 10 7 14 26 17 42 105 159 158
81 97 86 36 26 30 47 47 52 51 50 47 44 36 36 35 33 33 29 16 14 11 17 16 21 34 35 30 32 37 31 40 28 25 19 18 19 25 31 50 58 59 93 122
64 47 46 68 81 64 52 41 38 38 41 44 35 34 32 30 28 27 19 19 27 30 31 33 38 45 43 39 38 49 54 55 47 41 36 30 34 39 40 50 55 60 66 91
60 60 59 61 64 50 43 33 30 28 35 37 31 31 35 37 42 33 27 32 33 39 41 38 43 37 34 44 54 62 58 68 63 64 67 66 63 68 73 70 64 60 61 61
91 44 47 41 45 39 30 29 22 32 36 31 35 35 37 46 48 45 49 46 47 45 46 49 39 42 51 66 70 72 74 80 81 80 87 79 75 79 71 65 55 45 30 23
80 54 32 42 54 54 45 33 28 34 36 42 42 47 56 50 54 55 50 41 48 60 62 56 50 62 69 75 81 83 86 85 87 94 89 96 87 78 67 69 60 55 40 30
73 57 47 46 54 62 51 45 42 51 62 68 67 59 62 63 58 59 51 57 63 66 71 59 69 83 92 90 96 96 101 106 108 109 102 98 96 86 78 72 65 55 45 40
79 67 68 74 81 77 68 58 80 94 93 88 86 77 68 61 60 60 63 58 57 66 61 57 73 90 87 99 103 108 110 114 116 110 116 105 98 87 77 74 67 60 49 41
64 57 71 88 99 92 81 83 107 110 91 79 76 74 71 70 63 74 75 73 86 69 61 57 87 108 110 109 111 115 111 110 123 111 99 90 81 78 72 69 65 60 54 47
59 40 59 79 76 88 85 98 109 119 98 82 78 91 83 77 89 75 55 73 100 84 85 89 100 123 117 110 115 113 109 110 97 87 82 79 73 67 63 56 55 53 49 43
67 59 65 52 66 92 103 93 94 103 98 84 92 93 85 95 106 114 119 118 104 106 102 99 116 111 107 107 110 108 111 97 81 70 67 63 61 59 56 48 45 45 44 41
68 51 58 86 125 126 102 85 97 96 94 96 91 105 110 116 112 116 106 131 122 125 115 106 117 108 111 116 115 115 106 90 81 78 74 71 67 64 54 48 40 36 38 37
64 90 109 125 111 95 116 127 122 108 103 99 105 107 102 108 122 134 150 159 148 144 124 130 121 118 119 117 112 119 111 98 90 88 87 86 84 78 71 62 51 41 39 37
82 85 94 99 109 120 126 135 119 118 126 131 132 127 127 122 116 125 133 127 134 140 130 138 142 136 128 120 122 114 111 106 101 101 100 92 85 80 74 72 68 61 53 48
121 130 140 138 133 130 138 140 141 136 131 142 153 155 142 140 143 143 137 129 134 132 140 145 145 144 144 131 121 107 103 106 109 112 110 103 95 88 83 79 75 71 65 57

GFSNGP_con_3kmhel_126.txt.gz
Helicity
56 47 40 87 86 85 64 67 -9 -27 21 5 0 -14 -5 27 55 76 75 92 128 166 157 188 275 264 237 250 304 284 211 209 228 226 217 233 234 257 248 229 269 251 271 268
73 28 29 74 106 99 104 92 101 10 15 -12 -17 -6 8 35 55 60 55 66 55 62 66 70 99 134 143 114 100 49 81 130 105 126 170 177 159 152 136 156 142 212 212 261
41 22 -23 -36 109 92 102 90 10 9 -2 -9 -3 -4 10 28 29 10 21 32 58 78 71 56 57 46 42 42 24 37 48 65 77 60 62 80 77 111 150 130 123 83 116 120
23 -5 -8 45 32 59 85 103 73 46 17 8 6 8 13 8 6 14 25 44 60 64 53 50 42 36 23 29 39 55 78 76 66 61 54 43 39 40 40 53 79 104 122 155
24 69 48 36 32 33 69 74 57 27 27 38 35 29 38 25 24 24 21 16 14 5 -2 0 14 13 10 34 45 77 96 95 99 80 65 60 65 58 26 14 18 13 19 65
38 64 19 104 91 39 48 60 51 29 24 26 33 36 31 7 7 -9 -14 -12 -13 -15 -18 -7 9 3 14 42 56 76 80 52 25 14 25 28 27 31 12 7 10 -8 4 15
43 81 52 102 79 42 62 74 40 58 47 23 32 22 -1 -3 3 -8 -9 -2 -12 -7 -2 5 -5 -4 8 17 31 14 6 19 30 30 24 22 13 15 14 7 6 14 12 8
34 64 42 83 91 71 55 62 52 64 56 53 31 10 12 6 -4 1 3 5 0 -2 5 7 7 2 11 20 16 15 17 18 25 23 19 11 20 22 24 30 22 20 18 5
73 84 86 126 115 63 58 52 47 46 35 24 18 18 9 8 12 16 18 9 4 6 9 15 18 17 27 31 23 23 26 31 30 38 28 27 39 39 32 24 9 1 -5 2
35 36 59 93 104 87 63 58 51 42 33 16 25 22 20 19 19 18 18 19 12 14 23 26 24 24 19 14 10 10 17 18 9 15 15 22 14 20 26 33 35 33 20 8
45 44 47 52 66 67 73 73 66 51 38 31 22 20 17 17 16 17 19 22 21 24 24 23 13 14 13 16 19 20 20 18 17 6 5 -7 -5 -7 -13 2 15 12 20 11
49 43 48 49 52 55 57 56 47 41 35 26 16 11 4 13 15 21 26 24 27 24 16 12 11 13 12 11 12 11 14 6 8 10 22 33 39 25 53 42 72 93 92 63
41 63 59 92 71 48 51 41 30 26 23 24 20 21 31 39 42 37 34 29 22 19 15 14 19 22 17 13 18 20 18 28 32 44 50 54 54 58 69 70 66 89 123 132
81 121 89 77 59 49 49 47 42 44 38 35 39 32 35 43 34 33 30 25 19 17 18 13 16 25 18 17 27 34 35 60 51 61 71 77 85 93 94 100 106 112 118 120
65 42 38 68 83 67 57 43 37 39 42 46 40 41 42 41 35 30 22 10 13 17 16 6 11 19 18 25 31 46 52 72 58 65 76 71 81 87 91 96 101 103 100 112
72 68 70 63 66 57 42 31 33 41 48 45 49 43 39 35 26 23 24 22 19 22 18 15 27 35 33 45 46 60 63 82 65 70 83 91 97 106 114 116 113 110 105 109
81 56 53 51 42 29 28 39 45 52 55 42 41 34 33 34 34 40 38 32 46 42 35 48 45 47 51 63 47 72 73 72 66 82 97 108 112 120 116 114 105 108 81 84
52 48 29 27 38 39 46 46 48 47 40 45 43 44 42 40 48 52 49 46 50 54 65 68 55 60 64 65 73 82 87 87 95 112 122 141 140 135 130 117 116 103 88 73
59 45 43 30 34 48 55 52 50 55 64 64 54 51 64 72 67 65 64 60 60 62 105 84 80 73 90 100 90 108 108 113 127 144 151 143 147 136 135 119 110 98 86 77
69 54 48 47 61 67 81 76 80 80 80 83 84 88 89 88 85 82 76 65 72 98 103 95 88 92 102 109 95 135 140 139 147 152 163 160 155 128 113 104 96 92 87 81
74 64 60 63 95 118 106 94 110 104 93 75 79 98 104 114 101 96 91 82 137 110 94 94 89 111 113 126 114 152 149 144 139 156 154 139 116 104 94 89 86 84 83 80
82 67 63 79 98 113 106 99 110 115 93 96 121 121 124 110 108 95 68 88 145 137 108 110 113 152 128 124 131 142 139 137 140 139 128 110 96 85 81 79 78 77 76 74
96 82 81 84 86 101 116 110 110 103 108 117 121 119 111 109 111 115 117 144 119 144 121 128 160 140 117 115 121 127 119 132 131 120 102 91 83 78 76 75 79 72 73 73
105 97 94 106 114 108 110 112 118 123 129 134 131 119 112 121 120 113 107 155 152 161 138 143 153 124 117 122 126 120 121 123 119 108 99 94 83 85 79 78 73 69 67 66
96 111 108 98 94 100 118 130 140 139 141 135 127 119 107 109 117 131 136 127 142 160 140 150 141 128 140 128 129 127 131 123 116 107 99 98 96 96 92 85 80 70 68 62
97 82 80 88 106 127 144 150 144 154 156 153 145 140 131 123 119 121 129 131 126 130 130 140 143 149 134 129 128 130 136 124 113 107 110 110 101 102 99 87 82 74 66 64
103 106 116 124 135 150 163 166 175 172 154 155 156 164 140 138 135 138 146 144 144 136 141 132 143 149 145 152 159 141 141 129 126 127 121 118 118 110 106 98 91 88 81 75

GFSNGP_con_3kmhel_132.txt.gz
Helicity
72 87 114 99 74 52 74 115 140 154 112 80 76 55 39 29 16 1 -9 -7 -6 -6 40 102 148 99 112 93 145 181 271 340 397 288 330 288 274 218 210 197 186 146 126 176
58 67 55 54 3 20 41 103 137 150 111 100 99 65 61 44 31 15 8 0 6 -3 6 43 42 60 47 39 54 48 67 132 106 194 107 169 196 177 180 242 315 279 351 282
27 72 20 50 73 60 66 99 56 59 82 59 77 65 56 43 43 33 23 20 16 0 -11 22 16 24 38 53 80 85 79 85 113 67 127 117 83 100 116 122 90 104 139 129
56 55 98 107 70 69 85 61 102 113 71 78 70 52 50 55 48 35 30 23 8 -9 -11 -1 12 -9 12 32 46 69 76 86 91 86 92 79 76 84 86 76 64 45 57 69
68 61 108 81 82 75 53 43 67 90 82 73 54 55 71 53 17 -3 5 10 -2 9 -31 -7 4 20 24 42 47 61 94 87 78 81 67 64 78 76 43 28 20 15 -7 15
46 66 116 115 89 65 52 52 55 67 80 72 44 49 73 36 4 -11 11 18 16 14 6 0 6 23 29 22 16 36 12 21 8 -11 4 23 31 41 15 6 7 0 -3 -8
35 63 90 101 147 100 69 93 70 70 65 56 48 62 79 24 10 -10 -7 21 21 18 12 15 12 4 27 14 3 8 3 -10 -3 -28 -44 -50 -45 -27 -15 -22 -10 5 -3 -4
48 62 141 136 96 107 136 126 90 88 56 92 117 67 50 19 10 11 34 33 31 24 21 17 22 18 27 48 20 6 12 4 4 -9 -20 -23 -11 3 24 25 22 32 36 25
118 98 91 155 113 121 113 121 131 155 113 111 106 78 46 10 30 42 42 38 32 28 28 26 24 25 25 22 4 0 -5 5 -8 12 -7 -6 -9 -4 -12 -13 -23 -17 -15 -7
69 85 94 144 175 163 150 144 122 99 83 76 76 46 36 42 45 48 50 40 32 30 30 27 24 22 14 4 -8 -3 -1 0 -8 -6 -9 -8 -32 -47 -55 -70 -68 -62 -62 -32
107 78 70 76 156 203 210 164 119 80 57 65 62 48 46 61 63 56 44 37 35 29 21 26 18 14 6 -4 -11 -15 -4 -3 4 -1 0 -12 -34 -43 -61 -95 -74 -105 -102 -110
59 80 39 96 127 152 163 122 97 97 89 56 50 61 64 67 53 48 45 37 35 24 23 21 15 14 7 0 -3 -9 -13 -25 -30 -31 -22 -16 -12 -10 -1 -42 -37 -31 -6 -34
56 55 67 140 75 79 95 76 78 70 67 73 73 75 75 72 81 62 49 42 26 20 23 22 27 19 12 7 6 4 -9 -5 -19 3 12 10 14 22 24 27 43 60 75 79
99 155 143 111 90 87 89 95 87 87 86 84 86 87 93 72 43 53 50 33 18 29 32 38 35 25 8 2 -1 0 -6 31 9 -2 6 8 20 32 34 30 23 23 53 106
70 54 78 88 110 103 94 86 90 87 88 95 84 77 64 53 61 54 33 11 22 41 45 39 38 28 15 21 8 7 31 42 18 6 11 28 44 50 54 55 46 54 74 92
47 78 76 99 98 109 94 73 72 81 81 84 78 73 66 78 63 42 38 28 23 48 43 38 49 46 48 45 28 37 63 70 51 42 55 64 71 73 68 81 93 107 112 103
61 89 81 78 87 82 67 63 75 79 79 80 84 84 82 55 49 40 38 47 58 37 40 65 60 72 59 68 54 62 87 91 86 90 95 105 105 89 105 130 130 122 114 104
77 80 95 81 99 84 73 63 81 84 84 76 93 93 79 63 43 77 76 69 51 46 58 85 75 71 62 92 83 75 112 123 119 118 125 124 111 117 144 139 137 131 111 97
81 95 81 83 82 67 65 67 83 93 120 165 152 119 116 109 96 94 70 74 52 40 106 100 81 69 78 114 113 106 140 155 130 134 135 139 136 147 147 133 133 125 112 101
132 140 135 117 88 72 92 107 155 184 168 166 151 124 107 100 104 97 82 67 59 128 108 125 94 82 107 92 133 122 129 147 135 135 138 140 148 148 131 124 127 118 109 104
150 156 143 143 150 164 204 196 204 173 147 144 136 120 111 106 104 97 91 73 103 149 121 133 99 105 149 168 138 136 145 142 138 144 145 145 141 143 134 127 122 119 114 108
170 174 166 163 163 182 185 188 184 168 161 156 147 143 140 119 109 91 67 96 134 120 114 99 105 143 189 150 142 132 116 131 136 140 140 138 144 140 138 139 136 131 124 116
134 143 154 144 133 130 147 153 146 148 151 152 162 145 120 104 104 99 120 139 131 143 123 117 183 177 175 147 133 115 110 129 142 146 140 137 140 144 148 151 149 144 140 126
124 109 116 135 153 129 109 113 118 131 145 143 131 120 112 127 120 120 144 150 135 174 129 137 178 142 145 145 131 109 108 124 146 150 149 153 156 157 153 149 156 152 151 147
116 132 132 146 124 100 108 109 125 124 119 103 108 111 102 136 170 229 219 209 179 126 119 119 105 112 155 134 100 102 110 124 141 194 193 188 184 177 169 159 153 160 169 163
103 96 91 87 86 100 111 94 97 102 109 117 126 122 133 133 152 161 154 151 134 114 106 101 108 109 117 111 123 147 192 192 195 215 236 231 219 201 193 191 193 190 189 192
86 105 102 88 96 135 132 95 107 120 116 131 115 116 111 139 158 138 136 108 112 131 132 145 150 164 201 212 226 238 239 248 249 250 247 252 228 208 229 250 229 217 209 195

GFSNGP_con_3kmhel_135.txt.gz
Helicity
59 -11 42 143 101 99 92 110 148 142 186 159 138 94 88 99 47 20 27 27 34 15 27 19 22 31 46 34 14 22 91 151 222 231 200 217 265 237 228 265 304 367 388 406
45 57 70 95 90 78 64 86 149 202 176 170 124 143 115 73 49 42 62 50 33 4 3 3 -9 -20 -15 6 45 53 54 -4 23 37 80 87 99 116 141 178 153 104 133 155
26 51 61 21 95 129 113 108 96 119 83 179 110 78 59 50 46 60 54 41 15 -4 -4 8 2 6 34 48 51 19 45 45 45 33 57 69 64 87 99 95 97 114 106 122
54 89 47 58 55 64 84 89 102 135 133 77 99 75 57 51 54 61 38 22 -4 -31 -19 -6 -7 -15 -11 4 26 39 54 71 82 76 49 35 58 77 69 27 32 46 61 66
53 39 60 47 72 114 107 54 111 135 161 159 122 84 54 58 25 16 -1 6 -15 -20 -19 -14 2 -13 -14 -3 3 42 47 37 30 19 16 15 19 4 -8 -30 -23 -18 -12 4
89 64 41 61 64 88 27 34 181 163 158 143 81 55 63 57 4 -1 9 13 14 19 19 9 -3 22 -11 -19 15 18 25 -8 -12 -19 -15 1 12 4 -11 -26 -25 -31 -24 -5
48 55 88 67 104 149 115 62 193 184 152 107 78 80 95 57 -2 2 17 26 38 23 28 43 17 35 75 2 -13 6 -23 10 -32 -25 -35 -35 -22 -0 -10 -9 -22 -27 -39 -30
67 87 92 165 148 98 95 137 151 148 134 115 154 110 83 30 15 27 17 44 36 22 21 31 40 39 64 77 2 -11 12 -11 6 -53 -53 -56 -59 -42 -33 -27 -17 -1 15 16
87 89 113 136 117 129 152 220 230 282 238 209 159 93 54 15 4 21 56 49 31 23 31 36 38 46 51 53 15 13 8 20 14 18 -13 -11 -16 -17 -24 -23 -31 -23 -20 -7
119 101 101 121 147 157 179 235 214 201 190 173 144 81 48 48 72 96 77 65 60 43 30 43 40 48 48 32 29 -8 -0 3 -20 -21 -22 -47 -77 -87 -96 -91 -72 -72 -89 -110
106 65 90 68 124 229 286 233 168 144 124 106 93 55 59 79 99 85 85 76 62 40 34 38 35 36 39 21 22 3 6 11 -7 -26 -24 -34 -59 -77 -112 -150 -113 -128 -176 -195
35 33 68 64 170 220 240 185 134 140 119 87 70 76 110 126 114 93 71 75 76 55 42 40 22 25 28 24 13 9 10 -18 -25 -43 -36 -27 -26 -14 -5 -20 -24 -2 10 -32
54 88 70 133 167 164 156 145 165 150 125 145 128 122 142 143 124 121 102 82 61 54 39 21 13 25 20 17 7 2 -14 -5 12 22 16 12 4 18 26 28 65 80 99 102
129 211 142 135 134 109 98 88 87 78 91 128 167 182 175 146 113 110 101 73 70 70 56 21 18 27 20 16 10 2 11 18 21 27 16 13 9 19 40 38 34 41 77 108
83 65 90 107 99 110 130 134 135 144 163 178 181 173 134 119 134 109 75 62 60 58 53 24 29 28 26 19 25 25 23 17 28 41 43 57 53 46 76 84 79 77 82 81
58 96 93 122 151 153 158 126 141 131 146 148 140 107 95 142 133 113 95 85 55 49 37 32 32 30 33 36 38 60 57 56 52 64 82 90 65 85 113 105 110 120 122 83
123 95 112 135 147 163 119 108 117 125 133 129 118 126 158 141 113 89 73 79 83 63 31 34 36 35 39 57 53 62 80 66 104 110 107 92 98 111 110 122 130 129 113 95
74 101 150 151 172 152 119 112 135 126 106 108 143 161 149 117 93 96 86 76 72 67 56 53 48 51 46 50 80 83 110 111 119 109 109 122 111 115 129 136 138 133 114 102
129 128 150 165 176 160 131 120 138 132 151 168 175 151 128 113 119 108 95 85 67 51 38 72 45 51 47 50 85 108 137 126 112 115 120 121 123 124 134 134 133 124 128 129
114 121 141 154 144 128 113 132 174 178 170 191 195 178 164 142 129 110 103 70 60 58 91 74 62 50 37 63 91 110 117 106 119 125 132 131 139 138 132 127 137 137 138 132
168 189 201 192 145 121 158 168 203 193 179 182 174 143 139 137 130 118 116 74 62 103 94 86 71 57 105 134 114 112 112 118 136 131 131 135 138 135 147 143 143 147 144 148
148 159 177 201 210 199 179 167 168 164 169 169 158 163 164 137 125 100 80 92 98 89 92 83 92 83 126 123 120 110 115 128 127 128 135 135 142 137 133 141 145 150 151 149
150 130 145 166 184 187 174 152 140 130 131 144 153 155 138 108 100 110 99 87 116 92 83 76 126 136 131 127 123 129 111 103 115 128 132 134 133 145 145 148 148 144 148 168
151 142 138 153 183 187 176 139 138 123 130 139 136 120 109 111 84 88 113 133 113 96 87 126 111 112 115 137 131 112 100 105 108 121 124 167 194 195 180 170 164 153 152 142
126 133 154 162 151 134 147 138 150 140 142 134 123 110 89 123 145 171 166 139 109 95 84 77 85 80 105 129 124 109 116 127 227 218 217 226 240 226 205 207 216 218 227 242
101 95 105 114 116 138 143 138 138 128 128 128 125 118 104 130 161 147 140 136 133 120 118 111 122 158 172 170 199 229 222 227 223 231 244 224 195 189 227 202 172 160 163 168
65 87 95 77 65 145 129 103 130 111 100 119 123 102 89 82 128 145 153 153 166 191 203 211 197 207 207 203 199 191 194 203 225 197 178 173 184 180 170 152 137 124 133 175

GFSNGP_con_3kmhel_138.txt.gz
Helicity
99 130 110 100 146 171 137 113 123 94 149 210 192 161 137 114 123 97 75 59 16 34 16 9 -0 -10 -6 3 12 -28 -50 -17 -17 -39 62 108 217 231 224 295 342 354 396 390
88 51 23 -48 -52 39 96 80 124 155 156 156 248 206 135 128 119 69 69 34 10 21 6 9 23 14 34 37 41 41 23 25 -28 -19 29 54 110 144 148 174 182 198 264 315
98 20 59 -19 -25 91 120 119 169 140 94 215 203 158 124 107 68 59 54 20 9 16 13 11 9 3 23 24 20 63 69 52 54 63 35 50 58 107 156 161 138 133 140 143
43 75 -17 31 32 24 91 120 128 124 124 183 173 136 114 82 72 63 47 11 2 2 30 22 13 5 -6 7 24 24 59 67 77 61 55 68 67 63 53 51 118 162 168 141
62 63 40 41 45 68 76 44 106 146 173 214 202 148 89 66 75 62 32 7 -2 10 20 36 29 11 17 28 23 15 19 29 40 46 44 49 65 53 35 16 18 47 58 88
71 51 -6 9 40 75 108 47 129 202 227 227 170 108 82 62 58 54 31 28 29 48 47 58 59 36 23 39 36 43 5 -19 -13 -1 4 4 -9 -6 -22 -20 -23 -21 1 16
88 56 44 61 33 117 97 44 117 176 207 181 116 118 114 108 67 79 67 62 69 82 70 46 54 73 37 12 35 29 -0 -20 -24 -18 -24 -44 -43 -33 -41 -48 -34 -26 -25 -1
81 43 13 150 130 98 71 79 149 131 164 163 155 150 136 88 64 77 65 65 63 69 68 64 63 62 65 28 -4 9 3 -16 -35 -45 -36 -42 -61 -49 -53 -51 -38 -25 -11 -5
43 48 74 116 79 117 123 178 152 165 143 207 205 166 125 80 85 84 88 69 58 62 68 68 69 58 48 27 -12 -16 -18 -12 -20 -25 -30 -26 -30 -33 -39 -39 -42 -31 -26 -21
69 71 102 131 137 134 145 168 191 235 227 217 196 177 132 88 99 104 90 81 68 69 66 63 59 62 45 20 -3 20 31 20 8 -1 -9 -22 -42 -49 -51 -68 -79 -88 -82 -87
72 74 112 107 137 203 194 194 207 217 230 236 239 140 112 120 119 114 94 87 83 76 65 55 59 64 52 33 14 19 15 -3 -12 -19 -29 -45 -76 -109 -131 -150 -125 -125 -131 -109
20 43 90 81 159 202 185 147 133 159 168 165 162 146 161 151 130 119 111 107 97 82 66 50 52 53 51 39 26 21 21 13 -1 -25 -47 -59 -61 -35 20 27 60 59 59 -4
50 107 74 124 183 153 163 122 105 110 97 133 150 185 183 185 141 101 100 107 94 79 62 48 46 53 49 24 19 24 12 5 -5 -12 -15 1 11 15 18 38 92 97 88 84
121 199 140 132 138 179 183 158 150 125 104 137 179 184 171 160 123 117 115 115 108 82 58 52 48 52 46 24 32 20 26 43 40 36 33 30 25 26 31 20 19 26 37 83
98 66 64 102 141 139 149 159 162 152 171 166 138 170 179 153 135 125 117 108 93 80 62 55 53 52 48 38 56 71 35 49 49 49 46 42 40 55 53 50 44 40 47 61
66 77 102 125 115 111 115 129 148 144 158 153 166 161 151 154 160 139 120 98 77 60 56 57 57 47 60 53 66 95 95 67 70 62 47 57 63 64 71 80 80 78 81 70
123 91 102 114 114 106 105 118 145 143 149 150 125 149 168 174 157 134 109 94 90 71 53 56 47 55 60 71 98 111 106 81 81 88 78 63 79 93 96 98 92 96 94 92
74 62 79 132 137 131 111 107 128 134 130 127 145 151 167 156 134 114 93 101 112 107 77 68 64 56 55 75 105 108 115 101 91 92 81 109 117 106 104 105 105 116 114 111
73 75 111 148 153 141 114 106 104 101 122 150 173 155 148 141 132 107 97 85 81 86 65 69 54 65 59 76 93 109 117 116 109 113 126 134 131 111 110 117 123 118 127 137
65 83 115 129 153 146 120 87 104 105 109 163 186 177 155 130 126 120 102 76 73 83 90 74 67 68 57 65 79 112 117 125 123 130 142 135 120 113 122 120 129 136 148 161
93 96 112 137 137 123 138 126 136 120 127 174 180 154 149 137 135 127 118 89 67 67 87 88 86 78 81 85 97 106 125 127 138 143 134 117 120 123 135 137 142 145 148 165
105 125 137 141 144 134 105 126 133 145 142 148 156 184 183 150 136 109 103 101 100 103 99 93 80 70 95 109 113 128 123 122 122 123 116 122 135 149 143 147 147 153 155 153
93 108 127 139 142 145 153 128 135 138 119 120 136 150 151 151 148 154 112 81 105 96 98 92 74 75 96 109 112 112 115 128 129 123 116 136 154 186 196 203 201 180 177 187
104 108 111 136 171 169 158 122 132 122 112 108 107 125 147 155 142 108 161 133 111 104 86 93 90 90 99 103 121 136 152 128 133 214 217 199 203 205 214 224 217 198 195 198
108 117 120 136 122 109 135 134 143 140 137 126 126 125 141 156 133 111 131 117 113 95 85 86 92 102 107 123 141 166 206 203 201 201 197 187 192 213 220 206 196 185 178 184
78 85 83 87 94 116 128 132 124 124 138 144 135 138 139 160 152 131 104 113 114 143 166 191 213 223 221 213 192 198 206 202 193 194 194 194 189 182 174 171 168 167 175 193
85 96 98 93 102 114 112 114 124 113 121 136 135 120 133 155 146 163 166 179 204 226 232 232 217 206 180 168 177 174 168 171 175 161 155 151 146 138 137 131 134 146 157 170

GFSNGP_con_3kmhel_141.txt.gz
Helicity
219 165 109 117 136 109 107 112 166 97 68 59 90 140 181 174 158 116 109 87 73 70 62 33 40 36 39 44 30 17 13 2 -48 -86 -85 -70 -23 39 49 118 224 235 248 312
198 116 99 99 71 114 77 75 130 108 19 50 165 261 228 173 105 103 111 77 69 75 55 28 34 36 32 35 44 26 33 26 -9 -13 4 44 54 73 66 49 92 133 169 211
146 148 158 38 47 120 103 109 131 46 35 95 145 193 186 165 110 101 85 65 70 75 45 21 26 31 42 39 24 37 32 33 34 26 27 33 48 76 121 149 136 174 138 140
112 164 -33 39 51 26 40 31 140 150 102 89 151 181 164 125 106 82 61 71 69 71 52 22 30 40 33 27 27 41 50 52 49 37 44 59 38 52 78 74 76 42 68 66
130 109 40 7 25 -4 20 17 106 140 170 217 229 218 132 108 102 88 51 66 64 56 47 37 43 40 37 32 25 19 48 46 35 27 19 25 48 57 35 18 29 31 12 35
52 54 14 25 -8 44 62 32 83 188 201 244 217 143 84 119 133 97 68 85 80 66 70 79 52 48 53 43 27 26 0 3 11 9 8 11 7 8 -15 -30 -43 -34 -14 3
85 45 33 16 48 55 23 5 64 106 165 193 139 117 117 196 156 104 94 108 96 95 91 71 65 62 58 44 49 30 4 -15 -26 -24 -25 -47 -54 -57 -46 -35 -14 -4 -21 -22
178 117 50 94 119 58 49 49 56 93 128 163 181 168 179 213 202 147 125 99 103 113 104 95 82 75 67 53 35 28 6 -15 -33 -48 -43 -48 -58 -62 -61 -63 -56 -41 -34 -22
33 12 65 83 35 77 73 60 63 121 126 222 231 185 191 210 174 133 122 88 92 98 102 100 93 79 76 41 28 23 7 -14 -40 -45 -50 -47 -49 -53 -58 -55 -52 -39 -41 -33
41 28 19 58 122 133 107 84 89 125 192 231 211 196 221 224 186 158 120 86 79 81 91 91 83 81 64 43 23 17 -1 -23 -29 -26 -11 -8 -19 -41 -56 -72 -70 -61 -67 -72
44 28 33 28 113 149 144 128 163 195 198 206 222 191 219 197 181 171 100 73 64 72 88 82 72 71 65 49 17 12 3 2 5 1 -11 -20 -25 -43 -65 -118 -100 -108 -119 -102
8 16 45 36 143 149 132 122 130 194 189 191 221 208 213 171 158 173 125 98 75 81 95 80 69 61 61 50 33 20 25 11 -7 -21 -25 -24 -35 -38 0 0 39 37 29 -15
23 89 76 91 120 98 117 98 91 127 159 225 169 168 162 158 192 146 114 87 79 82 86 77 67 65 61 48 37 42 30 19 3 2 3 -10 -22 -26 -9 9 72 77 78 70
102 130 115 80 68 93 103 85 94 100 116 139 150 153 146 161 164 145 110 79 91 97 93 78 69 68 60 50 45 47 43 41 13 -1 11 19 18 20 20 21 15 27 32 72
84 66 61 108 137 130 129 135 137 137 151 155 169 195 160 122 114 125 115 111 106 106 96 80 71 64 63 69 75 63 50 55 34 45 51 50 52 55 47 39 20 13 25 39
80 70 103 139 144 128 143 131 137 119 126 118 130 123 130 142 160 149 136 128 122 90 79 74 70 67 78 85 86 89 85 86 89 83 86 90 80 64 52 44 38 34 31 26
107 70 80 104 111 105 114 121 115 112 103 114 118 153 171 183 183 160 125 108 100 97 80 76 70 77 96 108 111 107 113 117 108 107 97 95 79 62 58 69 69 68 65 58
35 44 48 80 76 89 95 93 102 107 90 100 143 173 187 173 161 146 138 140 134 106 81 78 78 82 98 107 121 131 145 131 122 108 109 109 92 87 97 97 84 92 96 94
31 36 26 51 87 109 111 96 97 99 116 141 159 136 136 144 148 137 131 123 108 89 48 75 69 85 88 98 122 140 142 138 128 121 123 118 118 124 119 109 113 118 115 113
15 32 52 68 98 115 108 80 106 106 107 141 146 147 128 122 140 147 126 87 75 82 96 89 90 95 89 100 122 137 136 130 127 132 142 133 137 125 123 123 129 130 138 136
34 41 55 74 81 82 112 121 126 102 98 132 138 120 121 135 149 163 139 89 64 75 106 116 116 102 102 110 109 115 132 137 128 122 123 132 133 132 138 135 165 160 156 148
49 59 64 85 98 89 75 93 103 112 100 105 106 141 157 145 164 159 141 120 117 118 127 121 113 101 104 101 115 124 132 132 128 126 129 128 137 159 175 186 187 189 182 170
60 59 70 75 81 86 105 99 107 129 120 104 108 116 127 135 148 160 123 105 125 113 106 101 104 96 87 100 112 131 143 131 120 135 173 190 186 189 189 200 205 193 181 171
72 73 67 77 103 106 111 99 113 118 123 119 116 131 159 157 138 138 163 144 144 140 127 116 97 98 120 133 137 132 129 178 197 192 187 184 191 202 198 185 175 162 160 162
95 88 89 97 92 89 108 115 141 142 148 145 140 135 133 128 136 111 144 156 146 151 169 168 165 161 153 160 174 194 194 181 175 180 188 181 175 173 161 155 145 140 142 146
92 87 90 95 86 95 108 112 120 124 141 150 151 158 176 167 174 185 189 203 205 220 231 212 202 207 199 188 178 173 164 170 173 172 163 152 148 139 129 125 125 127 136 141
94 98 105 112 104 107 110 114 124 114 116 131 155 150 175 193 216 220 225 235 234 239 237 224 205 178 156 152 148 148 153 159 156 141 134 126 116 101 100 101 107 117 128 137